Location: McFarlands Corners
(41.4117°N, 81.3382°W)
Time: 17:48:48
(UTC+00:00)

Transit 4A - All Passes

Search period start: 16 February 2026 00:00
Search period end: 26 February 2026 00:00
Orbit: 865 x 976 km, 66.8° (Epoch: 16 February)

Date Brightness Start Highest point End Pass type
(mag) Time Alt. Az. Time Alt. Az. Time Alt. Az.
16 Feb - 08:48:13 10° S 08:53:43 45° ESE 08:59:21 10° NE visible
16 Feb - 10:34:58 10° WSW 10:40:10 32° NW 10:45:31 10° NNE visible
16 Feb - 16:05:36 10° N 16:08:22 13° NNE 16:11:08 10° ENE daylight
16 Feb - 17:50:04 10° NNW 17:56:10 53° NE 18:02:21 10° SE daylight
16 Feb - 19:36:59 10° NW 19:42:11 28° WSW 19:47:27 10° SSW daylight
17 Feb - 08:56:35 10° SSW 09:02:21 67° ESE 09:08:18 10° NE visible
17 Feb - 10:44:33 10° W 10:49:12 24° NW 10:53:59 10° N visible
17 Feb - 16:13:39 10° N 16:17:36 17° NE 16:21:36 10° ENE daylight
17 Feb - 17:58:44 10° NNW 18:05:01 74° ENE 18:11:22 10° SE daylight
17 Feb - 19:46:29 10° WNW 19:50:41 19° WSW 19:54:55 10° SW daylight
18 Feb - 07:22:43 10° SE 07:25:38 14° ESE 07:28:36 10° ENE visible
18 Feb - 09:05:13 10° SSW 09:11:04 84° WNW 09:17:06 10° NNE visible
18 Feb - 10:54:26 10° W 10:58:20 18° NW 11:02:19 10° N visible
18 Feb - 16:21:57 10° N 16:26:46 23° NE 16:31:37 10° E daylight
18 Feb - 18:07:29 10° NNW 18:13:46 79° WSW 18:20:08 10° SSE daylight
18 Feb - 19:56:54 10° W 19:59:07 12° W 20:01:20 10° WSW daylight
19 Feb - 07:29:44 10° SSE 07:34:04 22° ESE 07:38:30 10° ENE visible
19 Feb - 09:14:07 10° SW 09:19:52 58° NW 09:25:49 10° NNE visible
19 Feb - 11:04:44 10° WNW 11:07:34 13° NNW 11:10:27 10° N visible
19 Feb - 16:30:24 10° NNW 16:35:50 30° NE 16:41:19 10° ESE daylight
19 Feb - 18:16:22 10° NW 18:22:27 55° WSW 18:28:38 10° S daylight
20 Feb - 07:37:27 10° S 07:42:35 33° ESE 07:47:51 10° NE visible
20 Feb - 09:23:14 10° WSW 09:28:45 41° NW 09:34:26 10° NNE visible
20 Feb - 11:16:08 10° NW 11:16:53 10° NNW 11:17:37 10° NNW visible
20 Feb - 14:55:24 10° NNE 14:56:41 11° NNE 14:57:57 10° NE daylight
20 Feb - 16:38:55 10° NNW 16:44:49 41° NE 16:50:46 10° ESE daylight
20 Feb - 18:25:22 10° NW 18:31:05 37° WSW 18:36:51 10° S daylight
21 Feb - 07:45:35 10° S 07:51:10 50° ESE 07:56:55 10° NE visible
21 Feb - 09:32:38 10° WSW 09:37:43 30° NW 09:42:58 10° NNE visible
21 Feb - 15:02:52 10° N 15:06:00 14° NE 15:09:08 10° ENE daylight
21 Feb - 16:47:31 10° NNW 16:53:43 57° NE 16:59:58 10° SE daylight
21 Feb - 18:34:37 10° NW 18:39:38 26° WSW 18:44:41 10° SSW daylight
22 Feb - 07:54:01 10° SSW 07:59:49 74° ESE 08:05:49 10° NNE visible
22 Feb - 09:42:16 10° W 09:46:47 22° NW 09:51:25 10° N visible
22 Feb - 15:11:01 10° N 15:15:13 18° NE 15:19:28 10° E daylight
22 Feb - 16:56:13 10° NNW 17:02:32 81° ENE 17:08:55 10° SSE daylight
22 Feb - 18:44:15 10° WNW 18:48:07 17° WSW 18:52:00 10° SW daylight
23 Feb - 06:19:39 10° SE 06:23:03 16° ESE 06:26:29 10° ENE night (unlit)
23 Feb - 08:02:42 10° SW 08:08:34 77° WNW 08:14:36 10° NNE visible
23 Feb - 09:52:14 10° WNW 09:55:56 17° NW 09:59:43 10° N visible
23 Feb - 15:19:21 10° N 15:24:21 24° NE 15:29:24 10° E daylight
23 Feb - 17:05:00 10° NNW 17:11:17 72° WSW 17:17:36 10° SSE daylight
23 Feb - 18:55:23 10° W 18:56:32 10° W 18:57:41 10° WSW daylight
24 Feb - 06:26:54 10° SSE 06:31:30 24° ESE 06:36:11 10° NE visible
24 Feb - 08:11:39 10° SW 08:17:22 53° NW 08:23:17 10° NNE visible
24 Feb - 10:02:39 10° WNW 10:05:11 13° NNW 10:07:44 10° N visible
24 Feb - 15:27:49 10° NNW 15:33:24 32° NE 15:39:02 10° ESE daylight
24 Feb - 17:13:54 10° NW 17:19:56 50° WSW 17:26:03 10° S daylight
25 Feb - 06:34:44 10° S 06:40:01 37° ESE 06:45:27 10° NE visible
25 Feb - 08:20:51 10° WSW 08:26:16 38° NW 08:31:53 10° NNE visible
25 Feb - 13:52:24 10° NNE 13:54:20 11° NNE 13:56:16 10° NE daylight
25 Feb - 15:36:22 10° NNW 15:42:21 44° NE 15:48:25 10° SE daylight
25 Feb - 17:22:57 10° NW 17:28:32 34° WSW 17:34:10 10° S daylight
